• In Österreich
  • Länderverzeichnis
  • Für 7 Tage
  • Wassertemperatur
  • Satellitenkarten
  • Wetterkarte
  • News
  • Widgets
  • user-avatar
    Anmelden

    Stündliche Wetter Santiago del Estero

    Heute, 23 September, Sonntag

    Zeit Temperatur Niederschläge Wind Luftdruck Luftfeuchtigkeit
    00:00 +32°C° 0 mm 2 m/S 732 mmHg 40%
    01:00 +31°C° 0 mm 2 m/S 732 mmHg 41%
    02:00 +31°C° 0 mm 2 m/S 732 mmHg 41%
    03:00 +30°C° 0 mm 3 m/S 732 mmHg 45%
    04:00 +29°C° 0 mm 3 m/S 733 mmHg 48%
    05:00 +28°C° 0 mm 4 m/S 733 mmHg 51%
    06:00 +28°C° 0 mm 4 m/S 734 mmHg 54%
    07:00 +28°C° 0 mm 5 m/S 734 mmHg 57%
    08:00 +28°C° 0 mm 5 m/S 735 mmHg 60%
    09:00 +30°C° 0 mm 5 m/S 735 mmHg 54%
    10:00 +33°C° 0 mm 5 m/S 736 mmHg 48%
    11:00 +34°C° 0 mm 4 m/S 736 mmHg 42%
    12:00 +36°C° 0 mm 5 m/S 736 mmHg 39%
    13:00 +37°C° 0 mm 5 m/S 735 mmHg 37%
    14:00 +39°C° 0 mm 5 m/S 735 mmHg 35%
    15:00 +38°C° 0 mm 6 m/S 735 mmHg 36%
    16:00 +36°C° 0 mm 7 m/S 735 mmHg 38%
    17:00 +36°C° 0 mm 7 m/S 735 mmHg 40%
    18:00 +34°C° 0 mm 7 m/S 736 mmHg 46%
    19:00 +32°C° 0 mm 7 m/S 737 mmHg 52%
    20:00 +29°C° 0 mm 7 m/S 738 mmHg 58%
    21:00 +27°C° 1.1 mm 7 m/S 739 mmHg 63%
    22:00 +26°C° 1.1 mm 7 m/S 739 mmHg 68%
    23:00 +24°C° 1.1 mm 7 m/S 740 mmHg 74%

    Morgen, 24 September, Montag

    Zeit Temperatur Niederschläge Wind Luftdruck Luftfeuchtigkeit
    00:00 +23°C° 2.2 mm 6 m/S 740 mmHg 74%
    01:00 +22°C° 2.2 mm 6 m/S 741 mmHg 75%
    02:00 +21°C° 2.2 mm 6 m/S 741 mmHg 76%
    03:00 +20°C° 0.3 mm 6 m/S 741 mmHg 74%
    04:00 +19°C° 0.3 mm 6 m/S 741 mmHg 73%
    05:00 +19°C° 0.3 mm 6 m/S 741 mmHg 71%
    06:00 +19°C° 0 mm 6 m/S 742 mmHg 70%
    07:00 +19°C° 0 mm 6 m/S 743 mmHg 69%
    08:00 +19°C° 0 mm 6 m/S 743 mmHg 68%
    09:00 +19°C° 0 mm 5 m/S 743 mmHg 65%
    10:00 +19°C° 0 mm 4 m/S 743 mmHg 63%
    11:00 +20°C° 0 mm 4 m/S 744 mmHg 60%
    12:00 +22°C° 0 mm 4 m/S 743 mmHg 55%
    13:00 +23°C° 0 mm 4 m/S 742 mmHg 51%
    14:00 +26°C° 0 mm 4 m/S 741 mmHg 46%
    15:00 +26°C° 0 mm 4 m/S 741 mmHg 46%
    16:00 +26°C° 0 mm 4 m/S 741 mmHg 46%
    17:00 +26°C° 0 mm 4 m/S 740 mmHg 46%
    18:00 +25°C° 0 mm 3 m/S 741 mmHg 50%
    19:00 +24°C° 0 mm 2 m/S 741 mmHg 53%
    20:00 +23°C° 0 mm 2 m/S 742 mmHg 57%
    21:00 +21°C° 0 mm 2 m/S 742 mmHg 59%
    22:00 +21°C° 0 mm 2 m/S 742 mmHg 61%
    23:00 +20°C° 0 mm 2 m/S 742 mmHg 63%

    übermorgen, 25 September, Dienstag

    Zeit Temperatur Niederschläge Wind Luftdruck Luftfeuchtigkeit
    00:00 +20°C° 0 mm 2 m/S 742 mmHg 65%
    01:00 +20°C° 0 mm 2 m/S 741 mmHg 66%
    02:00 +19°C° 0 mm 2 m/S 741 mmHg 68%
    03:00 +19°C° 0 mm 2 m/S 740 mmHg 69%
    04:00 +19°C° 0 mm 2 m/S 740 mmHg 71%
    05:00 +19°C° 0 mm 2 m/S 740 mmHg 73%
    06:00 +19°C° 0 mm 3 m/S 740 mmHg 71%
    07:00 +19°C° 0 mm 3 m/S 741 mmHg 69%
    08:00 +20°C° 0 mm 4 m/S 741 mmHg 68%
    09:00 +22°C° 0 mm 3 m/S 741 mmHg 62%
    10:00 +24°C° 0 mm 3 m/S 741 mmHg 56%
    11:00 +26°C° 0 mm 3 m/S 741 mmHg 51%
    12:00 +28°C° 0 mm 3 m/S 740 mmHg 48%
    13:00 +29°C° 0 mm 3 m/S 739 mmHg 46%
    14:00 +30°C° 0 mm 3 m/S 738 mmHg 43%
    15:00 +30°C° 0 mm 3 m/S 738 mmHg 44%
    16:00 +30°C° 0 mm 3 m/S 738 mmHg 44%
    17:00 +30°C° 0 mm 3 m/S 737 mmHg 45%
    18:00 +28°C° 0 mm 3 m/S 738 mmHg 50%
    19:00 +27°C° 0 mm 2 m/S 738 mmHg 56%
    20:00 +26°C° 0 mm 2 m/S 739 mmHg 61%
    21:00 +25°C° 0 mm 2 m/S 739 mmHg 66%
    22:00 +24°C° 0 mm 3 m/S 740 mmHg 70%
    23:00 +22°C° 0 mm 3 m/S 741 mmHg 75%

    26 September, Mittwoch

    Zeit Temperatur Niederschläge Wind Luftdruck Luftfeuchtigkeit
    00:00 +22°C° 0 mm 3 m/S 740 mmHg 79%
    01:00 +21°C° 0 mm 3 m/S 740 mmHg 83%
    02:00 +20°C° 0 mm 2 m/S 740 mmHg 87%
    03:00 +20°C° 0 mm 3 m/S 740 mmHg 88%
    04:00 +19°C° 0 mm 3 m/S 740 mmHg 89%
    05:00 +19°C° 0 mm 4 m/S 740 mmHg 90%
    06:00 +19°C° 0 mm 4 m/S 741 mmHg 86%
    07:00 +20°C° 0 mm 4 m/S 742 mmHg 82%
    08:00 +20°C° 0 mm 5 m/S 742 mmHg 77%
    09:00 +21°C° 0 mm 4 m/S 742 mmHg 73%
    10:00 +22°C° 0 mm 4 m/S 742 mmHg 68%
    11:00 +24°C° 0 mm 3 m/S 743 mmHg 63%
    12:00 +25°C° 0 mm 3 m/S 742 mmHg 60%
    13:00 +26°C° 0 mm 3 m/S 741 mmHg 58%
    14:00 +26°C° 0 mm 3 m/S 740 mmHg 56%
    15:00 +26°C° 0 mm 3 m/S 740 mmHg 56%
    16:00 +26°C° 0 mm 4 m/S 739 mmHg 57%
    17:00 +26°C° 0 mm 4 m/S 739 mmHg 58%
    18:00 +25°C° 0 mm 3 m/S 739 mmHg 62%
    19:00 +24°C° 0 mm 3 m/S 740 mmHg 66%
    20:00 +22°C° 0 mm 3 m/S 740 mmHg 71%
    21:00 +21°C° 0 mm 3 m/S 740 mmHg 74%
    22:00 +21°C° 0 mm 2 m/S 740 mmHg 76%
    23:00 +20°C° 0 mm 2 m/S 741 mmHg 79%

    27 September, Donnerstag

    Zeit Temperatur Niederschläge Wind Luftdruck Luftfeuchtigkeit
    00:00 +20°C° 0 mm 2 m/S 740 mmHg 82%
    01:00 +19°C° 0 mm 2 m/S 740 mmHg 84%
    02:00 +19°C° 0 mm 3 m/S 740 mmHg 86%
    03:00 +19°C° 0 mm 3 m/S 740 mmHg 86%
    04:00 +19°C° 0 mm 3 m/S 739 mmHg 86%
    05:00 +19°C° 0 mm 3 m/S 739 mmHg 86%
    06:00 +19°C° 0 mm 2 m/S 740 mmHg 86%
    07:00 +20°C° 0 mm 2 m/S 740 mmHg 85%
    08:00 +20°C° 0 mm 2 m/S 740 mmHg 85%
    09:00 +21°C° 0 mm 2 m/S 740 mmHg 78%
    10:00 +24°C° 0 mm 2 m/S 740 mmHg 71%
    11:00 +26°C° 0 mm 3 m/S 740 mmHg 64%
    12:00 +27°C° 0 mm 3 m/S 739 mmHg 61%
    13:00 +27°C° 0 mm 3 m/S 738 mmHg 58%
    14:00 +28°C° 0 mm 4 m/S 737 mmHg 55%
    15:00 +28°C° 0 mm 4 m/S 737 mmHg 55%
    16:00 +28°C° 0 mm 4 m/S 736 mmHg 55%
    17:00 +29°C° 0 mm 4 m/S 736 mmHg 55%
    18:00 +27°C° 0 mm 3 m/S 736 mmHg 59%
    19:00 +26°C° 0 mm 3 m/S 737 mmHg 64%
    20:00 +25°C° 0 mm 3 m/S 737 mmHg 68%
    21:00 +25°C° 0 mm 3 m/S 737 mmHg 71%
    22:00 +25°C° 0 mm 3 m/S 737 mmHg 73%
    23:00 +24°C° 0 mm 3 m/S 737 mmHg 76%

    28 September, Freitag

    Zeit Temperatur Niederschläge Wind Luftdruck Luftfeuchtigkeit
    00:00 +24°C° 0 mm 3 m/S 737 mmHg 80%
    01:00 +22°C° 0 mm 3 m/S 736 mmHg 83%
    02:00 +22°C° 0 mm 3 m/S 736 mmHg 87%
    03:00 +23°C° 0 mm 2 m/S 736 mmHg 90%
    04:00 +23°C° 0 mm 2 m/S 735 mmHg 92%
    05:00 +21°C° 0 mm 2 m/S 735 mmHg 95%
    06:00 +23°C° 0 mm 2 m/S 736 mmHg 91%
    07:00 +24°C° 0 mm 3 m/S 736 mmHg 86%
    08:00 +25°C° 0 mm 3 m/S 737 mmHg 82%
    09:00 +27°C° 0 mm 4 m/S 736 mmHg 72%
    10:00 +30°C° 0 mm 5 m/S 736 mmHg 63%
    11:00 +33°C° 0 mm 5 m/S 735 mmHg 53%
    12:00 +34°C° 0 mm 5 m/S 735 mmHg 49%
    13:00 +35°C° 0 mm 5 m/S 734 mmHg 46%
    14:00 +37°C° 0 mm 5 m/S 733 mmHg 42%
    15:00 +37°C° 0 mm 5 m/S 732 mmHg 43%
    16:00 +37°C° 0 mm 5 m/S 732 mmHg 43%
    17:00 +37°C° 0 mm 5 m/S 731 mmHg 44%
    18:00 +35°C° 0 mm 5 m/S 732 mmHg 50%
    19:00 +34°C° 0 mm 4 m/S 732 mmHg 56%
    20:00 +31°C° 0 mm 3 m/S 732 mmHg 61%
    21:00 +30°C° 0 mm 3 m/S 732 mmHg 65%
    22:00 +30°C° 0 mm 3 m/S 732 mmHg 69%
    23:00 +29°C° 0 mm 3 m/S 732 mmHg 72%
    Mehr zeigen